Weather History for CWGD - November, 2011

Change the Weather History Date:

Wednesday, November 30, 2011

  Actual Average Record
Temperature  
Mean Temperature 36 °F -  
Max Temperature 40 °F - - ()
Min Temperature 31 °F - - ()
Degree Days  
Heating Degree Days 30    
Moisture  
Dew Point 29 °F    
Average Humidity 78    
Maximum Humidity 100    
Minimum Humidity 54    
Precipitation  
Precipitation 0.31 in - - ()
Sea Level Pressure  
Sea Level Pressure 29.79 in    
Wind  
Wind Speed 14 mph ()    
Max Wind Speed 26 mph    
Max Gust Speed 37 mph    
T = Trace of Precipitation, MM = Missing Value Source: Averaged Metar Reports

Daily Weather History Graph

Daily Weather History Graph

Search for Another Location

Airport or City:

Trip Planner

Search our weather history database for the weather conditions in past years. The results will help you decide how hot, cold, wet, or windy it might be!

Date:

Astronomy

Nov. 30, 2011 Rise Set
Actual Time 7:39 AM EST 4:51 PM EST
Civil Twilight 7:07 AM EST 5:23 PM EST
Nautical Twilight 6:31 AM EST 5:59 PM EST
Astronomical Twilight 5:56 AM EST 6:33 PM EST
Moon 11:51 AM EST (11/30) 10:53 PM EST (11/30)
Length of Visible Light 10h 16m
Length of Day
9h 11m
Waxing Crescent, 33% of the Moon is Illuminated
Nov 30
Waxing Crescent
Dec 2
First Quarter
Dec 10
Full
Dec 17
Last Quarter
Dec 24
New

Hourly Weather History & Observations

Time (EST) Temp. Windchill Dew Point Humidity Pressure Visibility Wind Dir Wind Speed Gust Speed Precip Events Conditions
12:00 AM 33.3 °F 24.1 °F 31.3 °F 92% 29.59 in - North 12.7 mph - 0.04 in   Unknown
1:00 AM 33 °F - 32 °F 95% 29.55 in - North 12.7 mph - -  
1:00 AM 33.3 °F 24.1 °F 31.8 °F 94% 29.55 in - North 12.7 mph - 0.04 in   Unknown
2:00 AM 31.5 °F 22.3 °F 32.0 °F 100% 29.55 in - North 11.5 mph - 0.02 in   Unknown
3:00 AM 31.8 °F 21.4 °F 31.8 °F 100% 29.56 in - North 15.0 mph 20.7 mph 0.01 in   Unknown
4:00 AM 31.8 °F 21.4 °F 31.8 °F 100% 29.56 in - North 15.0 mph 20.7 mph 0.01 in   Unknown
5:00 AM 31.8 °F 21.4 °F 31.8 °F 100% 29.57 in - North 15.0 mph 21.9 mph 0.02 in   Unknown
6:00 AM 31.5 °F 18.5 °F 31.8 °F 100% 29.60 in - NNW 23.0 mph 29.9 mph 0.02 in   Unknown
7:00 AM 32 °F - 32 °F 100% 29.62 in - NNW 26.5 mph - -  
7:00 AM 31.6 °F 17.9 °F 32.0 °F 100% 29.62 in - NNW 26.5 mph 35.7 mph 0.24 in   Unknown
9:00 AM 31.3 °F 17.7 °F 31.5 °F 100% 29.69 in - NNW 25.3 mph 36.8 mph N/A   Unknown
10:00 AM 34.5 °F 22.5 °F 27.9 °F 77% 29.73 in - NNW 23.0 mph 31.1 mph N/A   Unknown
11:00 AM 35.8 °F 24.5 °F 26.6 °F 69% 29.77 in - NNW 21.9 mph 29.9 mph N/A   Unknown
12:00 PM 35.4 °F 24.3 °F 26.8 °F 71% 29.80 in - NNW 20.7 mph 27.6 mph N/A   Unknown
1:00 PM 36 °F - 26 °F 55% 29.83 in - NNW 18.4 mph - -  
1:00 PM 36.1 °F 25.9 °F 25.7 °F 66% 29.83 in - NNW 18.4 mph 26.5 mph N/A   Unknown
2:00 PM 37.0 °F 27.4 °F 23.9 °F 59% 29.86 in - NNW 17.3 mph 23.0 mph N/A   Unknown
3:00 PM 36.9 °F 27.5 °F 24.4 °F 61% 29.90 in - NNW 16.1 mph - N/A   Unknown
4:00 PM 38.1 °F 29.8 °F 26.6 °F 63% 29.94 in - NW 13.8 mph - N/A   Unknown
5:00 PM 38.1 °F 29.1 °F 28.6 °F 69% 29.98 in - NW 16.1 mph 21.9 mph N/A   Unknown
6:00 PM 38.1 °F 31.2 °F 26.4 °F 63% 29.99 in - NW 10.4 mph - N/A   Unknown
7:00 PM 38 °F - 27 °F 54% 30.03 in - West 11.5 mph - -  
7:00 PM 38.1 °F 30.7 °F 27.3 °F 65% 30.03 in - West 11.5 mph - N/A   Unknown
8:00 PM 39.0 °F 31.8 °F 28.9 °F 67% 30.05 in - West 11.5 mph - N/A   Unknown
9:00 PM 39.4 °F 32.7 °F 30.4 °F 70% 30.06 in - WSW 10.4 mph - N/A   Unknown
10:00 PM 40.5 °F 33.6 °F 28.6 °F 63% 30.07 in - West 11.5 mph 18.4 mph N/A   Unknown
11:00 PM 40.5 °F 33.2 °F 28.8 °F 63% 30.09 in - West 12.7 mph - N/A   Unknown